Home   Weather   Rouen   Past weeks

Flag for France Past Weather in Rouen, Upper Normandy, France — Yesterday and Last 2 Weeks

Now
45 °F

Sunny.


Feels Like: 39 °F
Forecast: 32 / 53 °F
Wind: 12 mph from North

Location: Rouen Airport

Current Time: Apr 25, 2017 at 8:33:40 pm

Latest Report: Apr 25, 2017 at 7:30 pm


Visibility: 10 mi

Pressure: 29.89 "Hg

Humidity: 49%

Dew Point: 27 °F

Location of RouenLocation

Past Weather in Rouen — Graph

°F

Rouen Temperature Yesterday

Maximum temperature yesterday: 61 °F (at 2:00 pm)
Minimum temperature yesterday: 36 °F (at 2:30 am)
Average temperature yesterday: 48 °F

High & Low Weather Summary for the Past Weeks

 TemperatureHumidityPressure
High63 °F (Apr 21, 3:00 pm)100% (Apr 11, 7:30 am)30.63 "Hg (Apr 11, 7:30 am)
Low32 °F (Apr 20, 7:00 am)28% (Apr 20, 4:30 pm)29.86 "Hg (Apr 25, 1:00 am)
Average48 °F68%30.25 "Hg
* Reported Apr 10 7:00 pm — Apr 25 7:30 pm, Rouen, Weather by CustomWeather, © 2017

Note: Actual official high and low records may vary slightly from our data, if they occured in-between our weather recording intervals... More about our weather records

Advertising

Rouen Weather History for the Previous 24 Hours

Scroll right to see more
 ConditionsComfort  
Time TempWeatherWind HumidityBarometerVisibility
7:30 pm
Tue, Apr 25
45 °FSunny.12 mph49%29.89 "Hg10 mi
7:00 pm46 °FSunny.10 mph46%29.89 "Hg10 mi
6:30 pm46 °FPartly sunny.12 mph46%29.89 "HgN/A
6:00 pm46 °FPartly sunny.12 mph46%29.89 "HgN/A
5:30 pm46 °FPassing clouds.12 mph46%29.89 "HgN/A
5:00 pm48 °FPassing clouds.12 mph43%29.89 "HgN/A
4:30 pm48 °FScattered clouds.12 mph43%29.89 "HgN/A
4:00 pm48 °FPassing clouds.10 mph43%29.89 "HgN/A
3:30 pm48 °FPassing clouds.8 mph43%29.89 "HgN/A
3:00 pm50 °FPassing clouds.8 mph40%29.89 "HgN/A
2:30 pm48 °FPassing clouds.6 mph40%29.89 "HgN/A
2:00 pm48 °FPassing clouds.10 mph37%29.92 "HgN/A
1:30 pm46 °FScattered clouds.12 mph43%29.92 "HgN/A
1:00 pm45 °FPassing clouds.9 mph42%29.92 "HgN/A
12:30 pm46 °FPartly sunny.9 mph46%29.92 "HgN/A
12:00 pm46 °FPartly sunny.8 mph50%29.92 "HgN/A
11:30 am45 °FPartly sunny.9 mph49%29.92 "HgN/A
11:00 am45 °FPartly sunny.8 mph49%29.92 "HgN/A
10:30 am43 °FPartly sunny.9 mph53%29.92 "HgN/A
10:00 am41 °FPartly sunny.10 mph61%29.92 "HgN/A
9:30 am41 °FScattered clouds.9 mph61%29.92 "HgN/A
9:00 am41 °FSunny.8 mph61%29.92 "Hg10 mi
8:30 am41 °FSunny.8 mph61%29.92 "Hg10 mi
7:30 am41 °FSunny.9 mph61%29.89 "Hg10 mi
7:00 am41 °FPassing clouds.9 mph61%29.89 "HgN/A
6:30 am41 °FClear.10 mph61%29.89 "Hg10 mi
6:00 am43 °FMostly cloudy.13 mph61%29.89 "HgN/A
5:30 am43 °FLight rain. Passing clouds.5 mph87%29.86 "Hg6 mi
4:30 am43 °FLight rain. Partly cloudy.9 mph87%29.86 "Hg4 mi
3:30 am46 °FOvercast.12 mph71%29.86 "HgN/A
3:00 am48 °FMostly cloudy.10 mph76%29.86 "HgN/A
2:30 am48 °FLight rain. Mostly cloudy.12 mph82%29.86 "HgN/A
2:00 am48 °FMostly cloudy.6 mph82%29.86 "HgN/A
1:30 am46 °FMostly cloudy.6 mph82%29.86 "HgN/A
1:00 am46 °FClear.8 mph82%29.86 "Hg10 mi
12:30 am46 °FClear.6 mph76%29.89 "Hg10 mi
12:00 am46 °FClear.8 mph76%29.89 "Hg10 mi
11:30 pm
Mon, Apr 24
48 °FClear.7 mph71%29.89 "Hg10 mi
11:00 pm48 °FClear.7 mph66%29.89 "Hg10 mi
10:00 pm48 °FClear.8 mph66%29.89 "Hg10 mi
9:30 pm50 °FClear.7 mph62%29.89 "Hg10 mi
9:00 pm50 °FSunny.7 mph62%29.89 "Hg10 mi
8:30 pm52 °FPassing clouds.8 mph62%29.92 "HgN/A
8:00 pm54 °FPassing clouds.7 mph54%29.92 "HgN/A
Weather by CustomWeather, © 2017

See weather overviewHow to use our weather pages